Weather History for KGCK - March, 2013

Change the Weather History Date:

Sunday, March 3, 2013

  Actual Average Record
Temperature  
Mean Temperature 51 °F 40 °F  
Max Temperature 70 °F 53 °F 77 °F (1994)
Min Temperature 31 °F 26 °F -5 °F (2002)
Degree Days  
Heating Degree Days 14 25  
Month to date heating degree days 66 77  
Since 1 July heating degree days 3967 4101  
Cooling Degree Days 0 0  
Month to date cooling degree days 0 0  
Year to date cooling degree days 0 0  
Moisture  
Dew Point 32 °F    
Average Humidity 51    
Maximum Humidity 82    
Minimum Humidity 20    
Precipitation  
Precipitation 0.00 in 0.03 in 1.01 in (2000)
Month to date precipitation 0.00 0.08  
Year to date precipitation 0.34 0.96  
Sea Level Pressure  
Sea Level Pressure 29.76 in    
Wind  
Wind Speed 7 mph (SW)    
Max Wind Speed 14 mph    
Max Gust Speed 15 mph    
Visibility 10 miles    
Events      
T = Trace of Precipitation, MM = Missing Value Source: NWS Daily Summary

Daily Weather History Graph

Daily Weather History Graph

Search for Another Location

Airport or City:

Trip Planner

Search our weather history database for the weather conditions in past years. The results will help you decide how hot, cold, wet, or windy it might be!

Date:

Astronomy

Mar. 03, 2013 Rise Set
Actual Time 7:11 AM CST 6:38 PM CST
Civil Twilight 6:44 AM CST 7:05 PM CST
Nautical Twilight 6:14 AM CST 7:35 PM CST
Astronomical Twilight 5:44 AM CST 8:06 PM CST
Moon 12:12 AM CST (3/3) 10:34 AM CST (3/3)
Length of Visible Light 12h 20m
Length of Day
11h 27m
Waning Gibbous, 63% of the Moon is Illuminated
Mar 3
Waning Gibbous
Mar 4
Last Quarter
Mar 11
New
Mar 19
First Quarter
Mar 27
Full

Hourly Weather History & Observations

Time (CST) Temp. Windchill Dew Point Humidity Pressure Visibility Wind Dir Wind Speed Gust Speed Precip Events Conditions
12:54 AM 41.0 °F 36.4 °F 30.9 °F 67% 30.06 in 10.0 mi WSW 6.9 mph - N/A   Clear
1:54 AM 41.0 °F 38.0 °F 30.0 °F 65% 30.03 in 10.0 mi SW 4.6 mph - N/A   Clear
2:54 AM 37.0 °F 31.6 °F 30.0 °F 76% 29.99 in 10.0 mi West 6.9 mph - N/A   Clear
3:54 AM 33.1 °F 26.9 °F 28.0 °F 82% 29.96 in 10.0 mi WSW 6.9 mph - N/A   Clear
4:54 AM 34.0 °F 28.8 °F 28.0 °F 79% 29.94 in 10.0 mi West 5.8 mph - N/A   Clear
5:54 AM 34.0 °F 28.8 °F 27.0 °F 75% 29.92 in 10.0 mi West 5.8 mph - N/A   Clear
6:54 AM 33.1 °F 28.7 °F 27.0 °F 78% 29.89 in 10.0 mi South 4.6 mph - N/A   Clear
7:54 AM 32.0 °F 24.8 °F 27.0 °F 82% 29.88 in 10.0 mi SSW 8.1 mph - N/A   Clear
8:54 AM 37.0 °F 33.3 °F 30.0 °F 76% 29.87 in 10.0 mi South 4.6 mph - N/A   Clear
9:54 AM 41.0 °F 37.1 °F 32.0 °F 70% 29.84 in 10.0 mi SW 5.8 mph - N/A   Clear
10:54 AM 48.9 °F - 32.0 °F 52% 29.79 in 10.0 mi SW 6.9 mph - N/A   Clear
11:54 AM 55.9 °F - 30.9 °F 39% 29.75 in 10.0 mi SW 11.5 mph - N/A   Clear
12:54 PM 60.1 °F - 30.0 °F 32% 29.70 in 10.0 mi WSW 11.5 mph - N/A   Clear
1:54 PM 66.0 °F - 28.9 °F 25% 29.64 in 10.0 mi WSW 9.2 mph - N/A   Clear
2:54 PM 68.0 °F - 28.9 °F 23% 29.60 in 10.0 mi WSW 9.2 mph - N/A   Clear
3:54 PM 68.0 °F - 30.0 °F 24% 29.59 in 10.0 mi SSW 3.5 mph - N/A   Clear
4:54 PM 69.8 °F - 26.6 °F 20% 29.60 in 10.0 mi SW 6.9 mph - N/A   Clear
5:54 PM 60.1 °F - 39.0 °F 46% 29.59 in 10.0 mi South 8.1 mph - N/A   Clear
6:54 PM 57.9 °F - 39.0 °F 49% 29.60 in 10.0 mi Calm Calm - N/A   Clear
7:54 PM 51.1 °F - 39.0 °F 63% 29.62 in 10.0 mi South 3.5 mph - N/A   Clear
8:54 PM 48.0 °F - 39.9 °F 74% 29.61 in 10.0 mi East 6.9 mph - N/A   Clear
9:54 PM 46.9 °F - 39.0 °F 74% 29.60 in 10.0 mi SE 10.4 mph - N/A   Clear
10:54 PM 44.1 °F 40.8 °F 37.9 °F 79% 29.58 in 10.0 mi NE 5.8 mph - N/A   Clear
11:54 PM 44.1 °F 42.5 °F 39.0 °F 82% 29.57 in 10.0 mi North 3.5 mph - N/A   Clear